El Reno, OK

12:14 PM CDT on May 25, 2018 (GMT -0500)
El Reno

Weather History for KRQO - April, 2014

Change the Weather History Date:

Wednesday, April 23, 2014

  Actual Average (KPWA) Record (KPWA)
Temperature  
Mean Temperature 66 °F -  
Max Temperature 82 °F 73 °F 91 °F (1955)
Min Temperature 50 °F 52 °F 35 °F (2013)
Cooling Degree Days 1    
Growing Degree Days 16 (Base 50)    
Moisture  
Dew Point 50 °F    
Average Humidity 58    
Maximum Humidity 83    
Minimum Humidity 32    
Precipitation  
Precipitation 0.05 in - - ()
Sea Level Pressure  
Sea Level Pressure 29.82 in    
Wind  
Wind Speed 14 mph (SSE)    
Max Wind Speed 37 mph    
Max Gust Speed 47 mph    
Visibility 10 miles    
Events Rain , Thunderstorm    
Averages and records for this station are not official NWS values.
T = Trace of Precipitation, MM = Missing Value Source: NWS Daily Summary

Daily Weather History Graph

Daily Weather History Graph

Search for Another Location

Airport or City:

Astronomy

Apr. 23, 2014 Rise Set
Actual Time 6:49 AM CDT 8:11 PM CDT
Civil Twilight 6:22 AM CDT 8:38 PM CDT
Nautical Twilight 5:50 AM CDT 9:10 PM CDT
Astronomical Twilight 5:17 AM CDT 9:44 PM CDT
Moon 3:09 AM CDT (4/23) 2:33 PM CDT (4/23)
Length of Visible Light 14h 15m
Length of Day
13h 22m
Waning Crescent, 34% of the Moon is Illuminated
Apr 23
Waning Crescent
Apr 29
New
May 6
First Quarter
May 14
Full
May 21
Last Quarter

Hourly Weather History & Observations

Time (CDT) Temp. Heat Index Dew Point Humidity Pressure Visibility Wind Dir Wind Speed Gust Speed Precip Events Conditions
12:15 AM 55.4 °F - 41.0 °F 58% 29.95 in 10.0 mi SE 10.4 mph - N/A   Clear
12:35 AM 53.6 °F - 41.0 °F 62% 29.94 in 10.0 mi SE 9.2 mph - N/A   Clear
12:55 AM 55.4 °F - 41.0 °F 58% 29.94 in 10.0 mi SE 10.4 mph - N/A   Clear
1:15 AM 55.4 °F - 41.0 °F 58% 29.94 in 10.0 mi SSE 9.2 mph - N/A   Clear
1:35 AM 53.6 °F - 42.8 °F 67% 29.93 in 10.0 mi SSE 10.4 mph - N/A   Clear
1:55 AM 53.6 °F - 42.8 °F 67% 29.93 in 10.0 mi SE 9.2 mph - N/A   Clear
2:15 AM 51.8 °F - 42.8 °F 71% 29.92 in 10.0 mi SSE 8.1 mph - N/A   Clear
2:35 AM 51.8 °F - 42.8 °F 71% 29.91 in 10.0 mi SSE 9.2 mph - N/A   Clear
2:55 AM 51.8 °F - 42.8 °F 71% 29.90 in 10.0 mi SSE 8.1 mph - N/A   Clear
3:15 AM 51.8 °F - 42.8 °F 71% 29.90 in 10.0 mi SSE 8.1 mph - N/A   Clear
3:35 AM 51.8 °F - 42.8 °F 71% 29.90 in 10.0 mi SSE 5.8 mph - N/A   Clear
3:55 AM 51.8 °F - 42.8 °F 71% 29.90 in 10.0 mi SSE 10.4 mph - N/A   Clear
4:15 AM 50.0 °F - 42.8 °F 76% 29.89 in 10.0 mi SE 9.2 mph - N/A   Clear
4:35 AM 51.8 °F - 42.8 °F 71% 29.88 in 10.0 mi SSE 10.4 mph - N/A   Clear
4:55 AM 51.8 °F - 44.6 °F 76% 29.88 in 10.0 mi SSE 11.5 mph - N/A   Clear
5:15 AM 51.8 °F - 44.6 °F 76% 29.89 in 10.0 mi SE 6.9 mph - N/A   Clear
5:35 AM 50.0 °F - 42.8 °F 76% 29.88 in 10.0 mi SE 9.2 mph - N/A   Clear
5:55 AM 50.0 °F - 42.8 °F 76% 29.88 in 10.0 mi SSE 9.2 mph - N/A   Clear
6:15 AM 50.0 °F - 42.8 °F 76% 29.88 in 10.0 mi SSE 9.2 mph - N/A   Clear
6:35 AM 50.0 °F - 44.6 °F 82% 29.89 in 10.0 mi SSE 10.4 mph - N/A   Clear
6:55 AM 51.8 °F - 44.6 °F 76% 29.88 in 10.0 mi SSE 9.2 mph - N/A   Clear
7:15 AM 51.8 °F - 44.6 °F 76% 29.89 in 10.0 mi SSE 9.2 mph - N/A   Clear
7:35 AM 53.6 °F - 44.6 °F 72% 29.89 in 10.0 mi SSE 11.5 mph - N/A   Clear
7:55 AM 55.4 °F - 46.4 °F 72% 29.90 in 10.0 mi South 12.7 mph - N/A   Clear
8:15 AM 57.2 °F - 46.4 °F 67% 29.90 in 10.0 mi SSE 13.8 mph - N/A   Clear
8:35 AM 59.0 °F - 48.2 °F 67% 29.90 in 10.0 mi South 15.0 mph - N/A   Clear
8:55 AM 62.6 °F - 50.0 °F 63% 29.89 in 10.0 mi South 17.3 mph 20.7 mph N/A   Clear
9:15 AM 64.4 °F - 51.8 °F 64% 29.89 in 10.0 mi South 17.3 mph 23.0 mph N/A   Clear
9:35 AM 66.2 °F - 53.6 °F 64% 29.89 in 10.0 mi South 19.6 mph 24.2 mph N/A   Clear
9:55 AM 69.8 °F - 53.6 °F 56% 29.89 in 10.0 mi South 21.9 mph 25.3 mph N/A   Clear
10:15 AM 69.8 °F - 53.6 °F 56% 29.88 in 10.0 mi South 20.7 mph 26.5 mph N/A   Clear
10:35 AM 71.6 °F - 53.6 °F 53% 29.87 in 10.0 mi South 23.0 mph 28.8 mph N/A   Clear
10:55 AM 73.4 °F - 51.8 °F 47% 29.87 in 10.0 mi South 26.5 mph 32.2 mph N/A   Clear
11:15 AM 75.2 °F - 51.8 °F 44% 29.86 in 10.0 mi South 26.5 mph 31.1 mph N/A   Clear
11:35 AM 77.0 °F - 53.6 °F 44% 29.85 in 10.0 mi South 21.9 mph 31.1 mph N/A   Clear
12:15 PM 77.0 °F - 53.6 °F 44% 29.83 in 10.0 mi South 20.7 mph 29.9 mph N/A   Clear
12:35 PM 78.8 °F - 53.6 °F 42% 29.82 in 10.0 mi South 20.7 mph 29.9 mph N/A   Clear
12:55 PM 78.8 °F - 55.4 °F 44% 29.82 in 10.0 mi South 19.6 mph 27.6 mph N/A   Clear
1:15 PM 78.8 °F - 55.4 °F 44% 29.81 in 10.0 mi South 19.6 mph 29.9 mph N/A   Clear
1:35 PM 80.6 °F 80.3 °F 53.6 °F 39% 29.80 in 10.0 mi South 25.3 mph 29.9 mph N/A   Clear
1:55 PM 80.6 °F 80.3 °F 53.6 °F 39% 29.80 in 10.0 mi South 23.0 mph 31.1 mph N/A   Clear
2:15 PM 80.6 °F 80.3 °F 53.6 °F 39% 29.80 in 10.0 mi South 26.5 mph 32.2 mph N/A   Clear
2:35 PM 82.4 °F 81.4 °F 53.6 °F 37% 29.79 in 10.0 mi South 20.7 mph 27.6 mph N/A   Clear
2:55 PM 82.4 °F - 51.8 °F 35% 29.78 in 10.0 mi South 21.9 mph 31.1 mph N/A   Clear
3:35 PM 82.4 °F - 51.8 °F 35% 29.76 in 10.0 mi South 23.0 mph 29.9 mph N/A   Clear
3:55 PM 82.4 °F - 51.8 °F 35% 29.75 in 10.0 mi South 23.0 mph 29.9 mph N/A   Clear
4:15 PM 82.4 °F - 51.8 °F 35% 29.74 in 10.0 mi SSE 24.2 mph 28.8 mph N/A   Clear
4:35 PM 82.4 °F - 51.8 °F 35% 29.73 in 10.0 mi South 23.0 mph 28.8 mph N/A   Clear
4:55 PM 82.4 °F - 50.0 °F 32% 29.72 in 10.0 mi South 25.3 mph 29.9 mph N/A   Clear
5:15 PM 80.6 °F - 50.0 °F 34% 29.70 in 10.0 mi South 20.7 mph 29.9 mph N/A   Clear
5:35 PM 80.6 °F - 48.2 °F 32% 29.69 in 10.0 mi SSE 21.9 mph 27.6 mph N/A   Clear
5:55 PM 78.8 °F - 48.2 °F 34% 29.68 in 10.0 mi SSE 20.7 mph 28.8 mph N/A   Clear
6:15 PM 78.8 °F - 50.0 °F 36% 29.68 in 10.0 mi SSE 20.7 mph 27.6 mph N/A   Clear
6:55 PM 77.0 °F - 51.8 °F 41% 29.67 in 10.0 mi SSE 24.2 mph 28.8 mph N/A   Clear
7:15 PM 77.0 °F - 51.8 °F 41% 29.67 in 10.0 mi SSE 18.4 mph 25.3 mph N/A   Clear
7:55 PM 75.2 °F - 51.8 °F 44% 29.68 in 10.0 mi SE 15.0 mph - N/A   Clear
8:15 PM 75.2 °F - 53.6 °F 47% 29.71 in 10.0 mi SSE 13.8 mph 21.9 mph N/A Thunderstorm Scattered Clouds
8:35 PM 75.2 °F - 53.6 °F 47% 29.72 in 10.0 mi SSE 15.0 mph - N/A   Mostly Cloudy
8:55 PM 73.4 °F - 55.4 °F 53% 29.74 in 10.0 mi SSE 13.8 mph - N/A Rain Rain
9:15 PM 68.0 °F - 59.0 °F 73% 29.78 in 7.0 mi SSW 10.4 mph 21.9 mph 0.02 in Rain , Thunderstorm Rain
9:35 PM 68.0 °F - 59.0 °F 73% 29.74 in 10.0 mi SSE 17.3 mph 25.3 mph 0.03 in Rain Light Rain
9:55 PM 68.0 °F - 57.2 °F 68% 29.68 in 5.0 mi SE 20.7 mph 38.0 mph 0.05 in Rain Light Rain
10:15 PM 68.0 °F - 59.0 °F 73% 29.68 in 10.0 mi SSE 16.1 mph 35.7 mph N/A   Scattered Clouds
10:35 PM 68.0 °F - 59.0 °F 73% 29.68 in 10.0 mi SSE 32.2 mph 41.4 mph N/A Rain Light Rain
10:55 PM 66.2 °F - 60.8 °F 83% 29.66 in 7.0 mi SE 36.8 mph 47.2 mph N/A Rain , Thunderstorm Light Thunderstorms and Rain
11:15 PM 66.2 °F - 60.8 °F 83% 29.66 in 7.0 mi SSE 35.7 mph 43.7 mph N/A Rain , Thunderstorm Rain
11:35 PM 64.4 °F - 59.0 °F 83% 29.67 in 10.0 mi SSE 28.8 mph 41.4 mph N/A Thunderstorm Clear
11:55 PM 68.0 °F - 59.0 °F 73% 29.68 in 10.0 mi SE 25.3 mph 35.7 mph N/A   Clear